Weather History for Sussex, NJ

Change the Weather History Date:

Tuesday, February 12, 2013

  Actual Average Record
Temperature  
Mean Temperature 35 °F -  
Max Temperature 42 °F 37 °F 60 °F (1981)
Min Temperature 28 °F 11 °F -15 °F (1979)
Degree Days  
Heating Degree Days 30    
Moisture  
Dew Point 24 °F    
Average Humidity 62    
Maximum Humidity 93    
Minimum Humidity 47    
Precipitation  
Precipitation 0.00 in - - ()
Sea Level Pressure  
Sea Level Pressure 29.84 in    
Wind  
Wind Speed 4 mph (WSW)    
Max Wind Speed 10 mph    
Max Gust Speed 20 mph    
Visibility 9 miles    
Events Fog    
Averages and records for this station are not official NWS values.
T = Trace of Precipitation, MM = Missing Value Source: NWS Daily Summary

Daily Weather History Graph

Daily Weather History Graph

Search for Another Location

Airport:

Trip Planner

Search our weather history database for the weather conditions in past years. The results will help you decide how hot, cold, wet, or windy it might be!

Date:

Astronomy

Feb. 12, 2013 Rise Set
Actual Time 6:56 AM EST 5:29 PM EST
Civil Twilight 6:28 AM EST 5:57 PM EST
Nautical Twilight 5:55 AM EST 6:30 PM EST
Astronomical Twilight 5:23 AM EST 7:02 PM EST
Moon 7:50 AM EST (2/12) 8:29 PM EST (2/12)
Length of Visible Light 11h 29m
Length of Day
10h 32m
Waxing Crescent, 7% of the Moon is Illuminated
Feb 12
Waxing Crescent
Feb 17
First Quarter
Feb 25
Full
Mar 4
Last Quarter
Mar 11
New

Hourly Weather History & Observations

Time (EST) Temp. Windchill Dew Point Humidity Pressure Visibility Wind Dir Wind Speed Gust Speed Precip Events Conditions
12:53 AM 30.0 °F - 28.0 °F 92% 29.72 in 0.2 mi Calm Calm - N/A Fog Light Freezing Fog
1:26 AM 28.4 °F 23.3 °F 26.6 °F 93% 29.72 in 1.0 mi SW 4.6 mph - N/A   Mostly Cloudy
1:29 AM 30.2 °F 26.7 °F 28.4 °F 93% 29.72 in 2.0 mi SW 3.5 mph - N/A   Mostly Cloudy
1:37 AM 32.0 °F 28.7 °F 28.4 °F 87% 29.72 in 10.0 mi SW 3.5 mph - N/A   Mostly Cloudy
1:53 AM 34.0 °F 28.8 °F 30.0 °F 85% 29.74 in 10.0 mi SW 5.8 mph - N/A   Overcast
2:53 AM 39.0 °F 35.7 °F 28.0 °F 65% 29.76 in 10.0 mi SSW 4.6 mph - N/A   Overcast
3:53 AM 37.0 °F 34.5 °F 28.0 °F 70% 29.76 in 10.0 mi SW 3.5 mph - N/A   Overcast
4:53 AM 37.0 °F 33.3 °F 27.0 °F 67% 29.78 in 10.0 mi SW 4.6 mph - N/A   Overcast
5:53 AM 37.0 °F 34.5 °F 26.1 °F 65% 29.78 in 10.0 mi SW 3.5 mph - N/A   Overcast
6:53 AM 37.9 °F 34.4 °F 25.0 °F 60% 29.80 in 10.0 mi SW 4.6 mph - N/A   Overcast
7:53 AM 37.9 °F 32.7 °F 25.0 °F 60% 29.82 in 10.0 mi SW 6.9 mph - N/A   Overcast
8:53 AM 39.0 °F 35.7 °F 24.1 °F 55% 29.84 in 10.0 mi WSW 4.6 mph - N/A   Overcast
9:53 AM 39.9 °F 35.8 °F 23.0 °F 51% 29.86 in 10.0 mi Variable 5.8 mph - N/A   Overcast
10:53 AM 39.9 °F 33.9 °F 23.0 °F 51% 29.88 in 10.0 mi West 9.2 mph 19.6 mph N/A   Overcast
11:53 AM 39.9 °F 33.9 °F 23.0 °F 51% 29.89 in 10.0 mi WNW 9.2 mph 18.4 mph N/A   Overcast
12:53 PM 41.0 °F 36.4 °F 21.9 °F 47% 29.89 in 10.0 mi Variable 6.9 mph - N/A   Overcast
1:53 PM 42.1 °F 36.6 °F 23.0 °F 47% 29.89 in 10.0 mi WNW 9.2 mph 19.6 mph N/A   Overcast
2:53 PM 41.0 °F 37.1 °F 21.9 °F 47% 29.88 in 10.0 mi WNW 5.8 mph - N/A   Overcast
3:53 PM 39.9 °F 34.5 °F 23.0 °F 51% 29.87 in 10.0 mi NW 8.1 mph - N/A   Overcast
4:53 PM 39.0 °F - 21.9 °F 50% 29.87 in 10.0 mi Calm Calm - N/A   Overcast
5:53 PM 39.0 °F 32.3 °F 21.0 °F 49% 29.95 in 10.0 mi West 10.4 mph - N/A   Overcast
6:53 PM 37.9 °F 35.5 °F 21.0 °F 51% 29.96 in 10.0 mi Variable 3.5 mph - N/A   Overcast
7:53 PM 37.0 °F - 21.0 °F 52% 29.94 in 10.0 mi Calm Calm - N/A   Overcast
8:53 PM 35.1 °F - 23.0 °F 61% 29.93 in 10.0 mi Calm Calm - N/A   Overcast
9:53 PM 34.0 °F - 24.1 °F 67% 29.92 in 10.0 mi Calm Calm - N/A   Overcast
10:53 PM 36.0 °F 32.1 °F 21.0 °F 55% 29.92 in 10.0 mi Variable 4.6 mph - N/A   Overcast
11:53 PM 35.1 °F 32.2 °F 21.0 °F 57% 29.92 in 10.0 mi Variable 3.5 mph - N/A   Mostly Cloudy